When you browse on this site, cookies collect data to enhance your experience and personalize the content and advertising you see.
Visit our Privacy Policy to learn more. By continuing to use the site, you agree to this use of cookies and data.
  • In Sweden
  • List of Countries
  • For 7 days
  • Water Temperature
  • Satellite Maps
  • Weather Map
  • Weather Widgets
  • user-avatar
    Login

    Hourly Weather Stirling

    Today, 26 June, Wednesday

    Time Temperature Precipitation Wind Pressure Humidity
    00:00 +12°C° 0 mm 1 mps 771 mmHg 91%
    01:00 +12°C° 0 mm 1 mps 771 mmHg 92%
    02:00 +10°C° 0 mm 0 mps 771 mmHg 93%
    03:00 +10°C° 0 mm 0 mps 771 mmHg 93%
    04:00 +11°C° 0 mm 0 mps 771 mmHg 91%
    05:00 +11°C° 0 mm 0 mps 771 mmHg 89%
    06:00 +12°C° 0 mm 0 mps 772 mmHg 87%
    07:00 +14°C° 0 mm 1 mps 772 mmHg 84%
    08:00 +15°C° 0 mm 1 mps 772 mmHg 81%
    09:00 +16°C° 0 mm 1 mps 773 mmHg 78%
    10:00 +18°C° 0 mm 1 mps 773 mmHg 74%
    11:00 +19°C° 0 mm 1 mps 773 mmHg 69%
    12:00 +20°C° 0 mm 1 mps 773 mmHg 68%
    13:00 +21°C° 0 mm 1 mps 773 mmHg 66%
    14:00 +21°C° 0 mm 1 mps 772 mmHg 63%
    15:00 +22°C° 0 mm 1 mps 772 mmHg 61%
    16:00 +22°C° 0 mm 1 mps 772 mmHg 62%
    17:00 +22°C° 0 mm 1 mps 772 mmHg 63%
    18:00 +22°C° 0 mm 1 mps 772 mmHg 65%
    19:00 +21°C° 0 mm 1 mps 772 mmHg 71%
    20:00 +19°C° 0 mm 1 mps 773 mmHg 77%
    21:00 +16°C° 0 mm 1 mps 773 mmHg 84%
    22:00 +15°C° 0 mm 1 mps 773 mmHg 85%
    23:00 +14°C° 0 mm 1 mps 773 mmHg 86%

    Tomorrow, 27 June, Thursday

    Time Temperature Precipitation Wind Pressure Humidity
    00:00 +14°C° 0 mm 1 mps 773 mmHg 87%
    01:00 +12°C° 0 mm 0 mps 773 mmHg 88%
    02:00 +12°C° 0 mm 0 mps 773 mmHg 89%
    03:00 +12°C° 0 mm 0 mps 773 mmHg 90%
    04:00 +13°C° 0 mm 0 mps 773 mmHg 88%
    05:00 +14°C° 0 mm 0 mps 773 mmHg 87%
    06:00 +15°C° 0 mm 0 mps 773 mmHg 85%
    07:00 +16°C° 0 mm 0 mps 773 mmHg 81%
    08:00 +20°C° 0 mm 1 mps 773 mmHg 76%
    09:00 +22°C° 0 mm 1 mps 773 mmHg 72%
    10:00 +22°C° 0 mm 1 mps 773 mmHg 70%
    11:00 +23°C° 0 mm 1 mps 773 mmHg 67%
    12:00 +24°C° 0 mm 2 mps 773 mmHg 65%
    13:00 +24°C° 0 mm 2 mps 773 mmHg 65%
    14:00 +24°C° 0 mm 2 mps 773 mmHg 66%
    15:00 +24°C° 0 mm 2 mps 772 mmHg 66%
    16:00 +24°C° 0 mm 2 mps 772 mmHg 70%
    17:00 +23°C° 0 mm 2 mps 772 mmHg 75%
    18:00 +21°C° 0 mm 3 mps 771 mmHg 79%
    19:00 +19°C° 0 mm 2 mps 772 mmHg 84%
    20:00 +17°C° 0 mm 2 mps 772 mmHg 89%
    21:00 +14°C° 0 mm 2 mps 772 mmHg 95%
    22:00 +14°C° 0 mm 2 mps 772 mmHg 95%
    23:00 +13°C° 0 mm 2 mps 772 mmHg 96%

    Day after tomorrow, 28 June, Friday

    Time Temperature Precipitation Wind Pressure Humidity
    00:00 +12°C° 0 mm 1 mps 772 mmHg 96%
    01:00 +12°C° 0 mm 1 mps 771 mmHg 96%
    02:00 +12°C° 0 mm 1 mps 771 mmHg 96%
    03:00 +11°C° 0 mm 1 mps 771 mmHg 96%
    04:00 +12°C° 0 mm 1 mps 771 mmHg 93%
    05:00 +13°C° 0 mm 1 mps 770 mmHg 91%
    06:00 +14°C° 0 mm 1 mps 770 mmHg 89%
    07:00 +16°C° 0 mm 1 mps 770 mmHg 84%
    08:00 +18°C° 0 mm 2 mps 769 mmHg 79%
    09:00 +19°C° 0 mm 2 mps 769 mmHg 74%
    10:00 +20°C° 0 mm 3 mps 769 mmHg 71%
    11:00 +21°C° 0 mm 3 mps 768 mmHg 69%
    12:00 +22°C° 0 mm 3 mps 768 mmHg 67%
    13:00 +22°C° 0 mm 3 mps 767 mmHg 69%
    14:00 +24°C° 0 mm 3 mps 767 mmHg 70%
    15:00 +24°C° 0 mm 3 mps 767 mmHg 71%
    16:00 +22°C° 0 mm 3 mps 766 mmHg 74%
    17:00 +21°C° 0 mm 3 mps 765 mmHg 77%
    18:00 +21°C° 0 mm 3 mps 765 mmHg 81%
    19:00 +19°C° 0 mm 3 mps 765 mmHg 85%
    20:00 +17°C° 0 mm 2 mps 765 mmHg 90%
    21:00 +15°C° 0 mm 2 mps 764 mmHg 95%
    22:00 +14°C° 0 mm 2 mps 764 mmHg 95%
    23:00 +14°C° 0 mm 1 mps 764 mmHg 96%

    29 June, Saturday

    Time Temperature Precipitation Wind Pressure Humidity
    00:00 +13°C° 0 mm 1 mps 763 mmHg 96%
    01:00 +12°C° 0 mm 1 mps 763 mmHg 96%
    02:00 +12°C° 0 mm 1 mps 762 mmHg 96%
    03:00 +12°C° 0 mm 1 mps 762 mmHg 96%
    04:00 +13°C° 0 mm 1 mps 761 mmHg 94%
    05:00 +14°C° 0 mm 1 mps 761 mmHg 92%
    06:00 +15°C° 0 mm 1 mps 760 mmHg 90%
    07:00 +16°C° 0 mm 1 mps 760 mmHg 85%
    08:00 +19°C° 0 mm 1 mps 759 mmHg 79%
    09:00 +21°C° 0 mm 1 mps 759 mmHg 74%
    10:00 +21°C° 0 mm 2 mps 759 mmHg 74%
    11:00 +23°C° 0 mm 2 mps 758 mmHg 73%
    12:00 +23°C° 0 mm 2 mps 758 mmHg 73%
    13:00 +23°C° 0.2 mm 2 mps 758 mmHg 77%
    14:00 +21°C° 0.2 mm 2 mps 757 mmHg 81%
    15:00 +21°C° 0.2 mm 2 mps 757 mmHg 85%
    16:00 +20°C° 0.7 mm 2 mps 756 mmHg 89%
    17:00 +19°C° 0.7 mm 2 mps 756 mmHg 92%
    18:00 +18°C° 0.7 mm 2 mps 756 mmHg 95%
    19:00 +17°C° 0.1 mm 2 mps 755 mmHg 95%
    20:00 +17°C° 0.1 mm 2 mps 755 mmHg 95%
    21:00 +16°C° 0.1 mm 3 mps 755 mmHg 94%
    22:00 +16°C° 0 mm 3 mps 755 mmHg 95%
    23:00 +16°C° 0 mm 3 mps 755 mmHg 95%

    30 June, Sunday

    Time Temperature Precipitation Wind Pressure Humidity
    00:00 +14°C° 0 mm 3 mps 754 mmHg 95%
    01:00 +14°C° 0 mm 3 mps 754 mmHg 95%
    02:00 +14°C° 0 mm 3 mps 754 mmHg 96%
    03:00 +13°C° 0 mm 3 mps 754 mmHg 96%
    04:00 +13°C° 0.1 mm 3 mps 754 mmHg 95%
    05:00 +14°C° 0.1 mm 4 mps 754 mmHg 94%
    06:00 +14°C° 0.1 mm 4 mps 754 mmHg 93%
    07:00 +14°C° 0.2 mm 5 mps 755 mmHg 92%
    08:00 +14°C° 0.2 mm 5 mps 755 mmHg 90%
    09:00 +15°C° 0.2 mm 5 mps 755 mmHg 89%
    10:00 +15°C° 0.3 mm 5 mps 756 mmHg 89%
    11:00 +15°C° 0.3 mm 6 mps 756 mmHg 89%
    12:00 +15°C° 0.3 mm 6 mps 756 mmHg 89%
    13:00 +15°C° 0.2 mm 7 mps 756 mmHg 83%
    14:00 +16°C° 0.2 mm 7 mps 757 mmHg 76%
    15:00 +17°C° 0.2 mm 8 mps 757 mmHg 70%
    16:00 +16°C° 0 mm 8 mps 757 mmHg 71%
    17:00 +15°C° 0 mm 7 mps 757 mmHg 72%
    18:00 +14°C° 0 mm 7 mps 757 mmHg 73%
    19:00 +14°C° 0 mm 6 mps 758 mmHg 75%
    20:00 +13°C° 0 mm 6 mps 758 mmHg 77%
    21:00 +12°C° 0 mm 5 mps 758 mmHg 79%
    22:00 +12°C° 0 mm 5 mps 758 mmHg 80%
    23:00 +11°C° 0 mm 4 mps 758 mmHg 81%

    1 July, Monday

    Time Temperature Precipitation Wind Pressure Humidity
    00:00 +11°C° 0 mm 4 mps 758 mmHg 82%
    01:00 +11°C° 0 mm 4 mps 758 mmHg 81%
    02:00 +12°C° 0 mm 4 mps 758 mmHg 80%
    03:00 +12°C° 0 mm 4 mps 758 mmHg 80%
    04:00 +12°C° 0 mm 4 mps 759 mmHg 80%
    05:00 +12°C° 0 mm 5 mps 759 mmHg 81%
    06:00 +12°C° 0 mm 5 mps 759 mmHg 81%
    07:00 +13°C° 0.1 mm 5 mps 760 mmHg 77%
    08:00 +14°C° 0.1 mm 6 mps 760 mmHg 73%
    09:00 +15°C° 0.1 mm 7 mps 760 mmHg 69%
    10:00 +15°C° 0.1 mm 7 mps 761 mmHg 70%
    11:00 +15°C° 0.1 mm 7 mps 761 mmHg 70%
    12:00 +15°C° 0.1 mm 7 mps 761 mmHg 71%
    13:00 +15°C° 0 mm 6 mps 761 mmHg 73%
    14:00 +14°C° 0 mm 6 mps 762 mmHg 75%
    15:00 +14°C° 0 mm 5 mps 762 mmHg 76%
    16:00 +15°C° 0 mm 5 mps 763 mmHg 77%
    17:00 +15°C° 0 mm 4 mps 763 mmHg 77%
    18:00 +15°C° 0 mm 4 mps 764 mmHg 78%
    19:00 +14°C° 0 mm 3 mps 764 mmHg 82%
    20:00 +14°C° 0 mm 2 mps 765 mmHg 87%
    21:00 +13°C° 0 mm 2 mps 766 mmHg 91%
    22:00 +12°C° 0 mm 1 mps 766 mmHg 92%
    23:00 +11°C° 0 mm 1 mps 767 mmHg 92%
    Show more